Tracking 31027 objects as of 19-Jul-2025
HD Live streaming from Space Station
objects crossing your sky now

SL-12 R/B(2)

Track SL-12 R/B(2) now!


NORAD ID: 36118
Int'l Code: 2009-070H
Perigee: 19,043.4 km
Apogee: 19,190.7 km
Inclination: 64.8 °
Period: 674.9 minutes
Semi major axis: 25488 km
RCS: 6.3096 m2 (large)
Launch date: December 14, 2009
Source: Commonwealth of Independent States (former USSR) (CIS)
Launch site: TYURATAM MISSILE AND SPACE COMPLEX (TTMTR)

Note: This is a ROCKET BODY
Your satellite tracking list
STARLINK-1749
Track 1 satellite(s)




NASA's NSSDC Master Catalog

Two Line Element Set (TLE):
1 36118U 09070H   25199.65153363 -.00000030  00000-0  00000+0 0  9996
2 36118  64.8119  81.7311 0028904 203.7618 355.6617  2.13352832121502
Source of the keplerian elements: AFSPC